This is the latest recevied weather packets stored in our database for station/object N1HQ. If no packets are shown the sender has not sent any weather packets the latest 10 day(s).
| Time | Temp. | Humidity | Pressure | Rain* | Wind** | Luminosity | Snow |
|---|---|---|---|---|---|---|---|
| 1787770350 | 31.67° C | 80% | 1013.1 hPa | 0 mm | - | - | - |
| 1787770108 | 31.67° C | 79% | 1013.2 hPa | 0 mm | - | - | - |
| 1787769863 | 32.22° C | 83% | 1013.1 hPa | 0 mm | - | - | - |
| 1787769590 | 32.22° C | 80% | 1013.3 hPa | 0 mm | - | - | - |
| 1787769338 | 32.22° C | 80% | 1013.5 hPa | 0 mm | - | - | - |
| 1787769098 | 32.22° C | 80% | 1013.5 hPa | 0 mm | - | - | - |
| 1787768798 | 31.67° C | 82% | 1013.6 hPa | 0 mm | - | - | - |
| 1787768518 | 32.22° C | 81% | 1013.6 hPa | 0 mm | - | - | - |
| 1787768248 | 31.67° C | 81% | 1013.6 hPa | 0 mm | - | - | - |
| 1787767977 | 31.67° C | 81% | 1013.6 hPa | 0 mm | - | - | - |
| 1787767733 | 31.67° C | 81% | 1013.7 hPa | 0 mm | - | - | - |
| 1787767458 | 31.67° C | 81% | 1013.6 hPa | 0 mm | - | - | - |
| 1787767188 | 31.67° C | 81% | 1013.7 hPa | 0 mm | - | - | - |
| 1787766928 | 31.67° C | 82% | 1013.7 hPa | 0 mm | - | - | - |
| 1787766643 | 31.67° C | 80% | 1013.7 hPa | 0 mm | - | - | - |
| 1787766363 | 32.22° C | 80% | 1013.8 hPa | 0 mm | - | - | - |
| 1787766118 | 32.22° C | 81% | 1013.8 hPa | 0 mm | - | - | - |
| 1787765877 | 32.22° C | 80% | 1013.9 hPa | 0 mm | - | - | - |
| 1787765578 | 32.22° C | 82% | 1014.2 hPa | 0 mm | - | - | - |
| 1787765313 | 32.22° C | 80% | 1014.2 hPa | 0 mm | - | - | - |
| 1787765048 | 32.22° C | 79% | 1014.3 hPa | 0 mm | - | - | - |
| 1787764793 | 32.22° C | 79% | 1014.3 hPa | 0 mm | - | - | - |
| 1787764498 | 32.22° C | 75% | 1014.3 hPa | 0 mm | - | - | - |
| 1787764231 | 32.78° C | 79% | 1014.3 hPa | 0 mm | - | - | - |
| 1787763988 | 32.78° C | 75% | 1014.4 hPa | 0 mm | - | - | - |
* Rain latest hour (hover to see other rain measurements)
** Current wind speed in m/s (hover to see current wind gust speed)